{"data":{"norad_id":48606,"intl_designator":"2021-041BF","name":"TYVAK-0130","alt_names":[],"object_type":"PAYLOAD","status":"ACTIVE","operator":null,"country":"US","launch_date":"2021-05-15","launch_site_code":"AFETR","launch_vehicle":null,"mission":null,"orbit_class":"UNKNOWN","rcs_meters":null,"size_class":null,"mass_kg":null,"dimensions":null,"purposes":[],"wikipedia_slug":null,"has_3d_model":false,"image_url":null,"decayed_at":null,"tle_current":{"epoch":"2026-05-25T03:26:28.643712Z","epoch_age_seconds":66643,"freshness":"FRESH","line1":"1 48606U 21041BF  26145.14338708  .00005238  00000+0  20651-3 0  9998","line2":"2 48606  52.9939 133.0748 0011555  94.4679 265.7639 15.27190944276864","mean_motion":15.27190944,"eccentricity":0.0011555,"inclination_deg":52.9939,"raan_deg":133.0748,"arg_perigee_deg":94.4679,"mean_anomaly_deg":265.7639,"bstar":0.00020651,"rev_number":27686,"period_min":94.290763421394,"perigee_km":476.28487002885,"apogee_km":492.14376392239,"semimajor_km":6862.3513169756,"source":"CELESTRAK","updated_at":"2026-05-25T13:37:56.899691Z"}}}